FW1310 Weather Reports


time (UTC)temp
C
wind
direction
speed
KPH
gust
KPH
rain 1hr
cm
rain 24hr
cm
rain mn
cm
humidity
%
barometer
mb
20260502230004 24 39 3.2 4.8 0.00 0.00 0.00 34 1005.0
20260502225505 23 160 1.6 8.0 0.00 0.00 0.00 36 1005.1
20260502225004 24 141 1.6 8.0 0.00 0.00 0.00 37 1005.0
20260502224504 23 145 1.6 8.0 0.00 0.00 0.00 36 1005.1
20260502224004 24 197 4.8 8.0 0.00 0.00 0.00 35 1005.1
20260502223504 24 182 3.2 4.8 0.00 0.00 0.00 34 1005.2
20260502223004 23 35 1.6 8.0 0.00 0.03 0.00 35 1005.2
20260502222504 24 123 3.2 8.0 0.00 0.03 0.00 36 1005.1
20260502222004 24 274 3.2 4.8 0.00 0.03 0.00 37 1005.2
20260502221504 23 34 1.6 8.0 0.00 0.05 0.00 38 1005.1
20260502220504 23 16 3.2 9.7 0.00 0.08 0.00 37 1005.3
20260502220005 24 77 4.8 11.3 0.00 0.15 0.00 37 1005.3
20260502215504 24 54 4.8 11.3 0.00 0.18 0.00 37 1005.3
20260502215004 23 205 3.2 11.3 0.00 0.23 0.00 38 1005.1
20260502214504 23 155 3.2 9.7 0.00 0.28 0.00 39 1005.3
20260502214004 23 44 3.2 9.7 0.00 0.33 0.00 39 1005.4
20260502213004 24 177 3.2 9.7 0.00 0.43 0.00 38 1005.6
20260502212504 23 159 8.0 12.9 0.00 0.43 0.00 37 1005.6
20260502212004 24 203 4.8 11.3 0.00 0.43 0.00 38 1005.7
20260502211504 24 270 3.2 4.8 0.00 0.43 0.00 37 1005.7
20260502211004 23 193 3.2 4.8 0.00 0.43 0.00 36 1005.7
20260502210504 23 306 0.0 9.7 0.00 0.43 0.00 40 1005.8
20260502210004 24 99 4.8 11.3 0.00 0.43 0.00 37 1006.0
20260502205504 25 196 4.8 11.3 0.00 0.43 0.00 35 1006.0
20260502204504 23 70 1.6 4.8 0.00 0.43 0.00 39 1006.2
20260502204004 23 61 3.2 8.0 0.00 0.43 0.00 36 1006.2
20260502203504 23 359 3.2 11.3 0.00 0.43 0.00 38 1006.4
20260502203004 23 153 3.2 11.3 0.00 0.43 0.00 37 1006.3
20260502202504 24 44 1.6 4.8 0.00 0.43 0.00 38 1006.2
20260502202005 23 36 0.0 9.7 0.00 0.43 0.00 39 1006.4
20260502201505 23 166 3.2 8.0 0.00 0.46 0.00 38 1006.4
20260502201004 23 152 3.2 8.0 0.00 0.46 0.00 38 1006.5
20260502200504 23 10 1.6 4.8 0.00 0.46 0.00 39 1006.4
20260502200004 24 82 1.6 11.3 0.00 0.46 0.00 39 1006.4
20260502195504 23 177 3.2 12.9 0.00 0.48 0.00 37 1006.4
20260502195004 23 348 4.8 12.9 0.00 0.48 0.00 38 1006.3
20260502194504 22 278 0.0 12.9 0.00 0.48 0.00 42 1006.5
20260502194004 23 188 4.8 12.9 0.00 0.51 0.00 37 1006.5
20260502193504 22 182 4.8 9.7 0.00 0.53 0.00 37 1006.5
20260502192505 23 82 3.2 8.0 0.00 0.58 0.00 41 1006.6
20260502192004 22 176 3.2 11.3 0.00 0.61 0.00 43 1006.5
20260502191005 23 192 3.2 11.3 0.00 0.61 0.00 42 1006.6
20260502190504 23 171 1.6 8.0 0.00 0.61 0.00 41 1006.5
20260502190005 22 187 4.8 8.0 0.00 0.61 0.00 44 1006.5
20260502185004 22 201 3.2 14.5 0.00 0.61 0.00 42 1006.6
20260502184504 22 233 1.6 4.8 0.00 0.61 0.00 45 1006.8
20260502183504 22 111 4.8 9.7 0.00 0.61 0.00 45 1006.8
20260502183006 22 317 1.6 11.3 0.00 0.64 0.00 48 1006.9
20260502182504 22 184 8.0 12.9 0.00 0.66 0.00 45 1007.1
20260502170504 20 161 4.8 9.7 0.00 1.24 0.00 55 1008.1
20260502164004 20 194 3.2 8.0 0.00 1.24 0.00 54 1008.1
20260502163504 19 38 1.6 4.8 0.00 1.24 0.00 57 1008.2
20260502163004 19 127 3.2 4.8 0.00 1.24 0.00 56 1008.3
20260502162504 19 121 1.6 4.8 0.00 1.24 0.00 56 1008.2
20260502162004 18 106 4.8 12.9 0.00 1.24 0.00 56 1008.3
20260502161504 18 141 3.2 9.7 0.00 1.24 0.00 58 1008.3
20260502161004 18 82 3.2 9.7 0.00 1.24 0.00 57 1008.5
20260502160505 18 185 1.6 4.8 0.00 1.24 0.00 57 1008.3
20260502151005 16 134 1.6 8.0 0.00 1.70 0.00 66 1008.3
20260502130504 10 89 3.2 8.0 0.00 2.62 0.00 91 1007.1
20260502123504 9 30 1.6 3.2 0.00 2.62 0.00 92 1006.7
20260502122504 8 92 1.6 3.2 0.00 2.62 0.00 92 1006.6
20260502122005 8 127 1.6 3.2 0.00 2.62 0.00 93 1006.5
20260502121504 8 68 1.6 3.2 0.00 2.62 0.00 93 1006.3
20260502115504 8 69 0.0 1.6 0.00 2.62 0.00 93 1005.9
20260502114004 8 71 0.0 3.2 0.00 2.67 0.00 93 1005.6
20260502113504 8 33 0.0 1.6 0.00 2.67 0.00 93 1005.6
20260502112004 8 100 0.0 3.2 0.00 2.79 0.00 93 1005.6
20260502111504 8 93 0.0 1.6 0.00 2.84 0.00 93 1005.5
20260502111004 8 107 0.0 1.6 0.00 2.90 0.00 93 1005.4
20260502110004 8 96 1.6 4.8 0.00 2.95 0.00 92 1005.3
20260502105004 8 86 0.0 3.2 0.00 3.00 0.00 92 1004.9
20260502104504 8 96 0.0 1.6 0.00 3.02 0.00 92 1004.9
20260502104004 9 177 0.0 0.0 0.00 3.05 0.00 91 1004.6
20260502103504 9 129 0.0 1.6 0.00 3.07 0.00 91 1004.6
20260502103004 9 127 0.0 4.8 0.00 3.12 0.00 91 1004.5
20260502102004 9 138 1.6 8.0 0.00 3.20 0.00 91 1004.2
20260502101504 9 91 1.6 8.0 0.00 3.20 0.00 91 1004.3
20260502101004 9 95 1.6 3.2 0.00 3.20 0.00 91 1004.3
20260502100504 9 103 0.0 9.7 0.00 3.20 0.00 91 1004.2
20260502091505 9 131 1.6 3.2 0.00 3.25 0.00 91 1004.1
20260502090504 9 80 3.2 4.8 0.00 3.25 0.00 91 1004.0
20260502071504 10 109 1.6 8.0 0.00 3.40 0.00 94 1004.0
20260502071004 10 103 1.6 4.8 0.00 3.40 0.00 94 1003.8
20260502070504 10 124 0.0 8.0 0.00 3.40 0.00 94 1004.0
20260502070005 10 129 1.6 8.0 0.00 3.40 0.00 94 1004.1
20260502065504 10 171 0.0 3.2 0.00 3.40 0.00 94 1004.1
20260502064505 10 140 1.6 4.8 0.00 3.40 0.00 94 1004.0
20260502064004 10 158 0.0 1.6 0.00 3.40 0.00 94 1003.8
20260502063504 10 98 0.0 1.6 0.00 3.40 0.00 94 1003.9
20260502063005 10 111 0.0 8.0 0.00 3.40 0.00 94 1003.8
20260502062504 10 108 1.6 4.8 0.00 3.40 0.00 94 1003.8
20260502062004 10 140 1.6 3.2 0.00 3.40 0.00 94 1004.0
20260502061504 10 102 1.6 3.2 0.00 3.40 0.00 94 1004.0
20260502061005 10 132 0.0 1.6 0.00 3.40 0.00 94 1003.8
20260502060504 10 125 0.0 0.0 0.00 3.40 0.00 94 1003.8
20260502060005 10 98 0.0 3.2 0.00 3.40 0.00 94 1003.8
20260502055504 10 76 1.6 3.2 0.00 3.43 0.00 94 1004.0
20260502055004 10 74 1.6 4.8 0.00 3.43 0.00 94 1003.9
20260502054505 10 90 3.2 8.0 0.00 3.43 0.00 93 1004.0
20260502054004 10 119 1.6 3.2 0.00 3.43 0.00 93 1004.1
20260502053006 10 78 1.6 4.8 0.00 3.43 0.00 93 1003.9
20260502052505 11 48 0.0 1.6 0.00 3.43 0.00 93 1003.9
20260502051505 11 112 1.6 3.2 0.00 3.43 0.00 93 1003.8
20260502050505 11 95 0.0 1.6 0.00 3.45 0.00 92 1003.8
20260502045505 11 108 1.6 4.8 0.00 3.48 3.45 92 1003.8
20260502045004 11 100 1.6 4.8 0.00 3.51 3.45 92 1003.6
20260502044504 11 142 1.6 4.8 0.00 3.51 3.45 92 1003.5
20260502044004 11 122 1.6 4.8 0.00 3.51 3.45 92 1003.7
20260502043504 11 117 1.6 4.8 0.00 3.51 3.45 92 1003.6
20260502043004 11 80 1.6 3.2 0.00 3.51 3.45 92 1003.7
20260502042504 11 145 1.6 4.8 0.00 3.51 3.45 92 1003.7
20260502042004 11 108 1.6 3.2 0.00 3.51 3.45 92 1003.6
20260502041505 11 115 1.6 3.2 0.00 3.51 3.45 92 1003.5
20260502041004 11 106 1.6 3.2 0.00 3.51 3.45 93 1003.3
20260502040504 11 181 0.0 1.6 0.00 3.51 3.45 93 1003.5
20260502040005 11 127 0.0 3.2 0.00 3.51 3.45 93 1003.6
20260502035004 11 163 1.6 3.2 0.00 3.51 3.45 93 1003.7
20260502034505 11 102 1.6 3.2 0.00 3.51 3.45 93 1003.7
20260502034004 11 141 3.2 8.0 0.00 3.51 3.45 93 1003.7
20260502033504 11 130 1.6 3.2 0.00 3.53 3.45 93 1003.7
20260502033004 11 91 1.6 4.8 0.00 3.58 3.45 93 1003.6
20260502032504 11 150 1.6 9.7 0.00 3.61 3.45 93 1003.5
20260502032004 11 135 0.0 4.8 0.00 3.63 3.45 92 1003.6
20260502031505 11 120 0.0 4.8 0.00 3.66 3.45 92 1003.6
20260502031005 11 88 3.2 4.8 0.00 3.71 3.45 92 1003.6
20260502030504 11 96 0.0 1.6 0.00 3.73 3.45 92 1003.5
20260502025504 11 106 1.6 8.0 0.00 3.76 3.45 91 1003.4
20260502025004 11 268 0.0 1.6 0.00 3.78 3.45 91 1003.3
20260502024505 11 93 1.6 1.6 0.00 3.91 3.45 91 1003.3
20260502024004 11 40 1.6 4.8 0.00 3.91 3.45 91 1003.2
20260502023504 11 17 1.6 9.7 0.00 3.91 3.45 91 1003.1
20260502023004 11 153 3.2 4.8 0.00 3.91 3.45 91 1003.0
20260502022504 11 123 1.6 3.2 0.00 3.91 3.45 92 1002.8
20260502022004 11 108 1.6 8.0 0.00 3.91 3.45 92 1002.8
20260502021505 11 81 1.6 4.8 0.00 3.91 3.45 92 1002.9
20260502021004 11 108 1.6 3.2 0.00 3.91 3.45 92 1002.7
20260502020505 11 105 1.6 9.7 0.00 3.91 3.45 92 1002.6
20260502020006 11 183 1.6 3.2 0.00 3.91 3.45 92 1002.5
20260502015504 11 98 0.0 8.0 0.00 3.91 3.45 92 1002.1
20260502014505 11 160 3.2 8.0 0.00 3.91 3.45 92 1002.0
20260502014004 11 98 1.6 3.2 0.00 3.91 3.45 92 1002.0
20260502013505 11 139 0.0 3.2 0.00 3.91 3.45 92 1002.1
20260502013005 11 152 3.2 8.0 0.00 3.91 3.45 92 1002.0
20260502012505 11 186 3.2 4.8 0.00 3.91 3.45 92 1001.8
20260502012004 11 224 3.2 11.3 0.00 3.91 3.45 91 1001.7
20260502011506 11 159 3.2 8.0 0.00 3.91 3.45 91 1001.6
20260502011005 12 198 3.2 11.3 0.00 3.91 3.45 91 1001.6
20260502010504 11 184 8.0 12.9 0.00 3.91 3.45 91 1001.4
20260502010006 11 200 4.8 11.3 0.00 3.91 3.45 91 1001.2
20260502005504 11 169 4.8 11.3 0.00 3.91 3.45 91 1001.3
20260502004506 11 226 4.8 11.3 0.00 3.91 3.45 91 1001.1
20260502003504 11 149 8.0 12.9 0.00 3.91 3.45 91 1000.9
20260502003006 11 102 8.0 12.9 0.00 3.91 3.45 91 1000.8
20260502002505 11 156 3.2 8.0 0.00 3.91 3.45 92 1000.6
20260502001506 11 179 8.0 14.5 0.00 3.91 3.45 92 1000.7
20260502001005 11 181 3.2 11.3 0.00 3.91 3.45 93 1000.5
20260502000505 11 94 4.8 11.3 0.00 3.91 3.45 93 1000.5
20260502000005 11 134 4.8 8.0 0.00 3.91 3.45 93 1000.5
20260501235505 11 191 4.8 11.3 0.00 3.91 3.45 93 1000.6
20260501235004 11 160 6.4 11.3 0.00 3.91 3.45 93 1000.6
20260501234504 11 233 3.2 12.9 0.00 3.91 3.45 93 1000.6
20260501234005 11 73 3.2 9.7 0.00 3.91 3.45 93 1000.6
20260501233504 11 117 3.2 8.0 0.00 3.91 3.45 93 1000.6
20260501233005 11 106 3.2 9.7 0.03 3.91 3.45 93 1000.5
20260501232504 11 90 8.0 12.9 0.03 3.91 3.45 94 1000.6
20260501232004 11 214 9.7 20.9 0.03 3.91 3.45 94 1000.4
20260501231005 11 175 9.7 19.3 0.05 3.96 3.45 95 1000.1
20260501230504 11 142 6.4 14.5 0.08 4.01 3.45 96 1000.0